Regional Weather Roundup
Issued by NWS Wakefield, VA

Home | Current Version | Previous Version | Graphics & Text | Print | Product List | Glossary On
Versions: 1 2 3 4 5 6 7 8 9 10 11 12 13 14 15 16 17 18 19 20 21 22 23 24 25 26 27 28 29 30 31 32 33 34 35 36 37 38 39 40 41 42 43 44 45 46 47 48 49 50
000
ASUS41 KAKQ 181815
RWRAKQ

REGIONAL WEATHER ROUNDUP
NATIONAL WEATHER SERVICE WAKEFIELD VA
100 PM EST SUN FEB 18 2018

Note: "fair" indicates few or no clouds below 12,000 feet with no
significant weather and/or obstructions to visibility. * = Denotes
station may not report precipitation (e.g., rain,snow,etc.),
thunder or fog.

VAZ042-051-052>054-056-181900-
NORTHERN VIRGINIA

CITY           SKY/WX    TMP DP  RH WIND       PRES   REMARKS
WASH NATIONAL  FAIR      47  29  49 NW8G17    30.43S
DULLES         PTSUNNY   47  31  53 W5        30.42S
FORT BELVOIR   FAIR      49  28  43 CALM      30.42S
QUANTICO       PTSUNNY   51  32  48 NE9       30.43F
FREDERICKSBRG* FAIR      50  31  47 NW7       30.41F
STAFFORD*      FAIR      50  30  45 NW10      30.46S
WARRENTON      FAIR      50  26  39 NW9       30.41S
CULPEPER*      FAIR      50  30  45 NW7       30.42S
MANASSAS*      FAIR      49  31  49 NW13      30.41F
LEESBURG*      PTSUNNY   45  30  57 W9        30.41F
WINCHESTER     PTSUNNY   43  28  56 W7        30.41S
FRONT ROYAL*   FAIR      43  28  56 MISG      30.38F
LURAY*         FAIR      46  30  53 SE3       30.38F
$$

VAZ048-049-060>072-079>083-181900-
CENTRAL AND SOUTH CENTRAL VIRGINIA

CITY           SKY/WX    TMP DP  RH WIND       PRES   REMARKS
RICHMOND       FAIR      53  35  50 N3        30.40F
CHESTERFIELD*  FAIR      52  37  56 N8        30.40F
PETERSBURG*    FAIR      50  36  57 N5        30.41F
HANOVER        FAIR      52  34  50 VRB6      30.42F
TAPPAHANNOCK*  FAIR      52  32  46 N17       30.42S
QUINTON*       FAIR      51  33  51 N7        30.40F
CHARLOTTSVILLE FAIR      52  31  44 NE5       30.39F
GORDONSVILLE*  FAIR      49  35  58 SE3       30.40F
ORANGE*        FAIR      48  32  53 CALM      30.40F
LOUISA*        FAIR      49  33  54 CALM      30.44F
BUMPASS*       FAIR      49  32  51 N8        30.41S
FARMVILLE*     FAIR      52  43  70 NE9       30.39S
CREWE*         FAIR      49  42  77 E3        30.39F
FORT PICKETT*  MOCLDY    50  41  71 E6        30.39F
CHASE CITY*    FAIR      56  35  44 E3        30.37S
CLARKSVILLE*   FAIR      55  34  44 CALM      30.36F
SOUTH HILL*    FAIR      52  40  63 NE7       30.44S
LAWRENCEVILLE* FAIR      51  38  62 NE3       30.39F
EMPORIA*       FAIR      52  37  58 NE3       30.41F
$$

VAZ088>098-181900-
SOUTHEAST VIRGINIA

CITY           SKY/WX    TMP DP  RH WIND       PRES   REMARKS
NORFOLK        FAIR      49  36  61 NE15      30.41S
VIRGINIA BEACH FAIR      51  33  50 NE12      30.40S
NORFOLK NAVAL  FAIR      49  35  58 N14G21    30.43S
WEST POINT*    FAIR      53  32  45 N5        30.43S
SALUDA*        FAIR      50  33  51 N8        30.42S
NEWPORT NEWS   FAIR      50  36  58 E12       30.41S
LANGLEY AFB    FAIR      49  36  61 NE13      30.42S
FORT EUSTIS    FAIR      53  35  50 N6        30.38S
WILLIAMSBURG*  FAIR      64  39  39 CALM      30.41S
HR EXEC AP*    FAIR      51  35  54 NE8G16    30.42S
FRANKLIN*      FAIR      52  36  53 NE9G17    30.40F
US460-WAKEFLD  FAIR      53  38  56 MISG      30.40F
$$

VAZ020-022-025-037-045-181900-
WEST CENTRAL AND SOUTHWEST VIRGINIA

CITY           SKY/WX    TMP DP  RH WIND       PRES   REMARKS
STAUNTON*      FAIR      45  29  53 CALM      30.39F
WAYNESBORO*    FAIR      47  30  51 S8        30.36F
HOT SPRINGS VA FAIR      36  25  62 S5        30.30F
LYNCHBURG      FAIR      53  27  36 N6        30.36F
DANVILLE       FAIR      55  33  43 NE5       30.36F
SOUTH BOSTON*  FAIR      56  31  37 NE3       30.37F
MARTINSVILLE   FAIR      54  28  36 NE5       30.38F
ROANOKE        FAIR      51  26  37 N5        30.38F
BLACKSBURG     FAIR      47  28  46 CALM      30.36F
DUBLIN*        FAIR      48  30  50 E6        30.35F
MARION*        FAIR      49  23  36 E9        30.33F
HILLSVILLE*    FAIR      46  25  44 N3        30.30F
RICHLANDS*     FAIR      46  25  43 E3        30.30F
WISE*          FAIR      45  32  61 S6        30.30F
ABINGDON*      FAIR      50  32  50 E7        30.30F
$$

MDZ021>025-VAZ099-100-181900-
SOUTHERN MARYLAND AND THE DELMARVA PENINSULA

CITY           SKY/WX    TMP DP  RH WIND       PRES   REMARKS
PATUXENT RIVER FAIR      48  35  60 N7        30.42S
BAY BRIDGE APT FAIR      45  34  65 NE5       30.43S
LEONARDTOWN    FAIR      48  30  49 NW5       30.43S
DOVER          FAIR      44  31  58 NW14      30.40R
GEORGETOWN     FAIR      47  28  47 N10G18    30.41R
EASTON         MOSUNNY   48  32  53 N9        30.45S
CAMBRIDGE      SUNNY     46  32  57 NW10      30.42S
SALISBURY      PTSUNNY   49  33  54 NW12G18   30.41S
OCEAN CITY     FAIR      47  33  58 NW12      30.41R
WALLOPS ISLAND FAIR      51  32  48 N12G20    30.41S
ACCOMACK*      PTSUNNY   48  33  54 N9        30.42S
$$

NCZ012>017-030>032-181900-
NORTH CENTRAL AND EASTERN NORTH CAROLINA

CITY           SKY/WX    TMP DP  RH WIND       PRES   REMARKS
ROANOKE RAPIDS FAIR      54  41  62 SE6       30.38F
RALEIGH        FAIR      58  35  42 VRB3      30.36F
ELIZABETH CITY FAIR      52  39  61 NE17      30.40S
AHOSKIE*       FAIR      53  40  59 NE9       30.39F HAZE
EDENTON*       FAIR      55  40  58 NE10      30.40S
CURRITUCK*     FAIR      48  34  58 NE15G22   30.42S
KILL DEVIL HLS FAIR      48  36  64 NE12G20   30.40S
MANTEO         FAIR      49  35  57 NE18G24   30.42R
CAPE HATTERAS  FAIR      52  40  63 NE17G28   30.38F
TARBORO*       NOT AVBL
GOLDSBORO      FAIR      61  38  42 NE12      30.33F
WASHINGTON     FAIR      58  40  52 NE9       30.37F
GREENVILLE     FAIR      59  39  47 NE8       30.36F
NEW BERN       FAIR      58  44  60 NE16      30.37R
WILMINGTON     PTSUNNY   63  47  55 SE12      30.33S
$$

VAZ048-181900-
ELSEWHERE

CITY           SKY/WX    TMP DP  RH WIND       PRES   REMARKS
HARRISBURG PA  PTSUNNY   42  26  53 NW6       30.39R
BALTIMORE      PTSUNNY   44  31  60 W14G21    30.40F
ANNAPOLIS      FAIR      46  33  60 NW7       30.42R
ANDREWS AFB    MOSUNNY   34  32  95 W10       30.42S
PHILADELPHIA   FAIR      44  26  49 NW16      30.39R
HENDERSON NC   FAIR      54  32  42 NE9G16    30.36F
GREENSBORO     FAIR      55  30  38 NE9       30.34F
ROCKY MOUNT    FAIR      60  36  40 N8        30.36F
$$

VAZ100-181900-
MARINE

STATION/POSITION TIME  TEMP    WIND        PRES    WAVE   SWELL
                       AIR SEA DIR/SP/G            HT/PER HT/PER
                 (UTC) (F)     (DEG/KT/KT) (MB)    (FT/S) (FT/S)
BRANDYWINE LGT   1742   40     340/ 14/ 16 1029.9R
CAPE MAY NJ      1742   41 40  320/ 16/ 19 1028.8F
LEWES DE         1748   40 42   10/ 13/ 16 1029.7S
15NM E FENWICK I 1750   40 43  310/ 17/ 21 1029.8R   4/ 5   2/ 8
OCEAN-CITY-INLET 1748   44 41  360/  7/  9 1030.1R
WACHAPREAGUE VA  1748   47 47   20/  8/ 13 1030.0F
THOMAS POINT MD  1800   41 38     CALM       N/A
GOOSES REEF MD   1800   42 40  110/  4/  4 1030.7    0
COVE POINT MD    1748   42      40/  7/  8 1030.7F
SOLOMONS ISLAND  1748   42 40  190/  4/  5 1029.8R
BISHOPS HEAD MD  1748   44 45  280/  8/ 10 1030.6S
POTOMAC MD       1800   44 40  280/  6/  8 1029.6    0
CAMBRIDGE MD     1748   47 44              1030.8R
LEWISETTA VA     1748   47 44  360/ 10/ 14 1030.2F
RAPPAHANNOCK LGT 1736           30/ 10/ 12 1030.8R
STINGRAY PT      1800   43 42   90/ 10/ 10 1031.4    1
YORK RVR RNG VA  1736   44      60/ 14/ 17 1030.2R
YORKTOWN VA      1736   48 45   40/  9/ 13 1029.3S
DOMINION TERM VA 1736   49      40/  4/ 12 1030.1F
KIPTOPEKE VA     1736      43  360/ 16/ 22   N/A
CAPE HENRY VA    1736   46      10/  5/  7   N/A
S CRANEY ISL VA  1736   45      30/ 18/ 24 1029.7F
CAPE HENRY BUOY  1800      43                N/A     3/ 6
1ST LANDING BUOY 1800   44 43   30/ 14/ 17 1029.9    2/ 3
CAPE CHARLES BUO 1751      43                N/A     3/ 6
64NM E OF VA BCH 1750   45 50   10/ 21/ 27 1029.2R   7/ 6
DUCK PIER NC     1736   44 45   10/ 11/ 13 1029.4R
44100 DUCK FRF   1745      45                N/A     4/ 6
44056 DUCK FRF   1800      44                N/A     3/ 6
OREGON INLET NC  1736   48 48   10/ 16/ 21 1029.4R
HATTERAS NC      1736   49 56   30/ 18/ 25 1028.5F
DIAMOND SHLS NC  1750   52      20/ 23/ 31   N/A     5/ 5   2/15
CAPE LOOKOUT NC  1800           40/ 23/ 26 1028.7R
$$



USA.gov is the U.S. government's official web portal to all federal, state and local government web resources and services.